Location: Azul
(36.7830°S, 59.8500°W)
Time: 10:07:06
(UTC-03:00)

DOVE 4 - Pass Details

Date: 26 October 2021
Orbit: 588 x 799 km, 97.8° (Epoch: 07 December)

Event Time Altitude Azimuth Distance (km) Brightness Sun altitude
Exits shadow 00:56:40 18° 203° (SSW) 1,919 ? -40.6°
Drops below altitude 10° 00:57:57 10° 199° (SSW) 2,402 ? -40.6°
Sets 01:00:22 0° 195° (SSW) 3,343 ? -40.6°
